Location: Limoges
(45.8354°N, 1.2645°E)
Time: 16:13:31
(UTC+01:00)

ISS - Pass Details

Date: 15 November 2025
Orbit: 416 x 420 km, 51.6° (Epoch: 12 December)

Event Time Altitude Azimuth Distance (km) Brightness Sun altitude
Rises 19:41:21 0° 253° (WSW) 2,363 1.3 -23.9°
Reaches altitude 10° 19:43:29 10° 257° (WSW) 1,499 0.1 -24.3°
Enters shadow 19:45:43 36° 277° (W) 681 -2.2 -24.7°
